Location: Biltmore Gardens
(41.6070°N, 83.4666°W)
Time: 14:08:30
(UTC+00:00)

CENTAUR R/B - Pass Details

Date: 14 July 2020
Orbit: 760 x 1428 km, 63.5° (Epoch: 01 August)

Event Time Altitude Azimuth Distance (km) Brightness Sun altitude
Exits shadow 08:30:22 - 168° (SSE) 2,752 4.5 -15.5°
Reaches altitude 10° 08:31:18 10° 162° (SSE) 2,475 4.3 -15.4°
Maximum altitude 08:35:53 25° 108° (ESE) 1,766 4.1 -14.8°
Drops below altitude 10° 08:41:03 10° 56° (NE) 2,817 6.2 -14.2°
Sets 08:44:19 0° 44° (NE) 3,897 7.7 -13.8°
